| time (UTC) | temp F | wind direction | speed knots | gust knots | rain 1hr in | rain 24hr in | rain mn in | humidity % | barometer mb |
| 20260504003042 | 71 | 98 | 7.0 | 9.6 | 0.00 | 0.00 | 0.00 | 64 | 1015.9 |
| 20260504001543 | 71 | 94 | 4.3 | 11.3 | 0.00 | 0.00 | 0.00 | 63 | 1015.7 |
| 20260504000040 | 71 | 108 | 4.3 | 12.2 | 0.00 | 0.00 | 0.00 | 63 | 1015.7 |
| 20260503234538 | 72 | 56 | 7.0 | 12.2 | 0.00 | 0.00 | 0.00 | 62 | 1015.7 |
| 20260503233036 | 72 | 68 | 9.6 | 13.9 | 0.00 | 0.00 | 0.00 | 61 | 1015.8 |
| 20260503231536 | 72 | 72 | 7.8 | 13.0 | 0.00 | 0.00 | 0.00 | 60 | 1015.8 |
| 20260503230035 | 72 | 56 | 6.1 | 11.3 | 0.00 | 0.00 | 0.00 | 60 | 1016.1 |
| 20260503224534 | 72 | 68 | 7.0 | 14.8 | 0.00 | 0.00 | 0.00 | 59 | 1016.2 |
| 20260503223032 | 72 | 65 | 8.7 | 11.3 | 0.00 | 0.00 | 0.00 | 59 | 1016.3 |
| 20260503221528 | 72 | 86 | 7.8 | 12.2 | 0.00 | 0.00 | 0.00 | 58 | 1016.6 |
| 20260503220033 | 73 | 74 | 4.3 | 13.0 | 0.00 | 0.00 | 0.00 | 58 | 1016.6 |
| 20260503214525 | 73 | 67 | 6.1 | 10.4 | 0.00 | 0.00 | 0.00 | 58 | 1016.9 |
| 20260503213028 | 72 | 61 | 7.0 | 13.0 | 0.00 | 0.00 | 0.00 | 57 | 1017.0 |
| 20260503211534 | 73 | 86 | 6.1 | 12.2 | 0.00 | 0.00 | 0.00 | 56 | 1017.3 |
| 20260503210018 | 72 | 90 | 7.8 | 12.2 | 0.00 | 0.00 | 0.00 | 57 | 1017.6 |
| 20260503204516 | 72 | 63 | 3.5 | 13.9 | 0.00 | 0.00 | 0.00 | 58 | 1017.7 |
| 20260503203014 | 72 | 56 | 4.3 | 8.7 | 0.00 | 0.00 | 0.00 | 57 | 1017.9 |
| 20260503201510 | 71 | 70 | 2.6 | 8.7 | 0.00 | 0.00 | 0.00 | 57 | 1018.3 |
| 20260503200009 | 72 | 68 | 1.7 | 8.7 | 0.00 | 0.00 | 0.00 | 57 | 1018.7 |
| 20260503194505 | 71 | 55 | 7.8 | 11.3 | 0.00 | 0.00 | 0.00 | 57 | 1019.1 |
| 20260503193011 | 71 | 101 | 7.0 | 12.2 | 0.00 | 0.00 | 0.00 | 57 | 1019.5 |
| 20260503191502 | 71 | 58 | 4.3 | 9.6 | 0.00 | 0.00 | 0.00 | 56 | 1019.6 |
| 20260503190001 | 70 | 56 | 2.6 | 10.4 | 0.00 | 0.00 | 0.00 | 56 | 1020.0 |
| 20260503184608 | 69 | 109 | 7.0 | 11.3 | 0.00 | 0.00 | 0.00 | 57 | 1020.3 |
| 20260503183057 | 69 | 110 | 6.1 | 10.4 | 0.00 | 0.00 | 0.00 | 58 | 1020.7 |
| 20260503181559 | 68 | 89 | 3.5 | 7.0 | 0.00 | 0.00 | 0.00 | 59 | 1020.9 |
| 20260503180054 | 68 | 51 | 1.7 | 5.2 | 0.00 | 0.00 | 0.00 | 60 | 1021.3 |
| 20260503174607 | 68 | 93 | 2.6 | 5.2 | 0.00 | 0.00 | 0.00 | 58 | 1021.4 |
| 20260503173055 | 68 | 37 | 1.7 | 4.3 | 0.00 | 0.00 | 0.00 | 59 | 1021.6 |
| 20260503171549 | 66 | 127 | 2.6 | 6.1 | 0.00 | 0.00 | 0.00 | 61 | 1021.8 |
| 20260503081552 | 63 | 57 | 6.1 | 10.4 | 0.00 | 0.00 | 0.00 | 76 | 1019.9 |
| 20260503071543 | 64 | 115 | 2.6 | 6.1 | 0.00 | 0.02 | 0.00 | 73 | 1020.7 |
| 20260503054534 | 64 | 112 | 1.7 | 7.8 | 0.00 | 0.04 | 0.04 | 73 | 1020.8 |
| 20260503053029 | 64 | 111 | 7.0 | 11.3 | 0.00 | 0.04 | 0.04 | 73 | 1020.8 |
| 20260503051526 | 64 | 84 | 8.7 | 14.8 | 0.00 | 0.04 | 0.04 | 73 | 1020.8 |
| 20260503050026 | 64 | 101 | 4.3 | 9.6 | 0.00 | 0.04 | 0.04 | 74 | 1020.7 |
| 20260503044527 | 65 | 75 | 5.2 | 9.6 | 0.00 | 0.06 | 0.04 | 73 | 1020.7 |
| 20260503043025 | 65 | 150 | 6.1 | 8.7 | 0.00 | 0.06 | 0.04 | 73 | 1020.9 |
| 20260503041524 | 65 | 90 | 6.1 | 8.7 | 0.00 | 0.06 | 0.04 | 73 | 1020.8 |
| 20260503040023 | 65 | 68 | 3.5 | 6.1 | 0.00 | 0.06 | 0.04 | 74 | 1020.9 |
| 20260503034521 | 65 | 65 | 4.3 | 7.0 | 0.00 | 0.08 | 0.04 | 71 | 1020.7 |
| 20260503033026 | 65 | 57 | 2.6 | 7.0 | 0.00 | 0.08 | 0.04 | 68 | 1020.6 |
| 20260503031518 | 65 | 37 | 2.6 | 6.1 | 0.00 | 0.08 | 0.04 | 68 | 1020.4 |
| 20260503030017 | 65 | 32 | 3.5 | 7.0 | 0.00 | 0.08 | 0.04 | 67 | 1020.2 |
| 20260503024517 | 66 | 74 | 2.6 | 8.7 | 0.00 | 0.08 | 0.04 | 67 | 1020.0 |
| 20260503023019 | 66 | 58 | 2.6 | 7.0 | 0.00 | 0.08 | 0.04 | 67 | 1019.8 |
| 20260503021516 | 66 | 72 | 2.6 | 5.2 | 0.00 | 0.08 | 0.04 | 67 | 1019.8 |
| 20260503020015 | 66 | 54 | 0.9 | 4.3 | 0.00 | 0.08 | 0.04 | 67 | 1019.5 |
| 20260503014514 | 66 | 70 | 1.7 | 4.3 | 0.00 | 0.08 | 0.04 | 67 | 1019.2 |
| 20260503013014 | 66 | 63 | 3.5 | 6.1 | 0.00 | 0.08 | 0.04 | 67 | 1019.1 |
| 20260503011513 | 66 | 74 | 3.5 | 7.0 | 0.00 | 0.08 | 0.04 | 66 | 1019.0 |
| 20260503010012 | 66 | 75 | 1.7 | 6.1 | 0.00 | 0.08 | 0.04 | 66 | 1019.0 |
| 20260503004511 | 67 | 74 | 3.5 | 5.2 | 0.00 | 0.08 | 0.04 | 66 | 1018.7 |